GW5170 Weather Reports


time (UTC)temp
C
wind
direction
speed
KPH
gust
KPH
rain 1hr
cm
rain 24hr
cm
rain mn
cm
humidity
%
barometer
mb
20260509093627 10 319 1.6 1.6 0.00 0.00 0.00 89 1004.9
20260509093123 11 279 3.2 3.2 0.00 0.00 0.00 88 1004.9
20260509092621 11 294 3.2 4.8 0.00 0.00 0.00 88 1004.9
20260509092120 11 259 4.8 4.8 0.00 0.00 0.00 88 1004.9
20260509091618 11 236 6.4 6.4 0.00 0.00 0.00 88 1004.9
20260509091113 11 269 6.4 6.4 0.00 0.00 0.00 88 1005.0
20260509090611 11 257 3.2 6.4 0.00 0.00 0.00 88 1004.9
20260509090109 11 280 6.4 6.4 0.00 0.00 0.00 88 1005.1
20260509085606 11 303 3.2 4.8 0.00 0.00 0.00 88 1005.0
20260509085101 11 319 3.2 3.2 0.00 0.00 0.00 88 1004.9
20260509084559 11 258 6.4 6.4 0.00 0.00 0.00 88 1004.9
20260509084056 11 266 8.0 11.3 0.00 0.00 0.00 87 1004.8
20260509083553 11 221 3.2 3.2 0.00 0.00 0.00 87 1004.7
20260509083050 11 220 12.9 16.1 0.00 0.00 0.00 87 1004.6
20260509082547 11 267 4.8 11.3 0.00 0.00 0.00 87 1004.7
20260509082044 11 238 8.0 9.7 0.00 0.00 0.00 87 1004.7
20260509081541 11 237 6.4 6.4 0.00 0.00 0.00 87 1004.5
20260509081038 11 257 6.4 9.7 0.00 0.00 0.00 87 1004.7
20260509080536 11 182 9.7 12.9 0.00 0.00 0.00 86 1005.0
20260509080034 11 252 11.3 14.5 0.00 0.00 0.00 86 1004.9
20260509075531 11 260 8.0 11.3 0.00 0.00 0.00 86 1005.0
20260509075029 12 216 6.4 9.7 0.00 0.00 0.00 86 1004.9
20260509074526 12 275 9.7 11.3 0.00 0.00 0.00 85 1004.8
20260509074022 12 301 6.4 6.4 0.00 0.00 0.00 85 1004.8
20260509073519 12 227 4.8 4.8 0.00 0.00 0.00 85 1004.9
20260509073015 12 269 9.7 12.9 0.00 0.00 0.00 84 1005.0
20260509072512 12 265 8.0 9.7 0.00 0.00 0.00 84 1005.0
20260509072009 12 240 6.4 6.4 0.00 0.00 0.00 84 1005.1
20260509071505 12 275 6.4 6.4 0.00 0.00 0.00 84 1005.1
20260509071003 12 293 4.8 6.4 0.00 0.00 0.00 83 1005.3
20260509070500 12 257 3.2 4.8 0.00 0.00 0.00 83 1005.3
20260509065955 12 295 8.0 11.3 0.00 0.00 0.00 82 1005.4
20260509065451 12 211 4.8 6.4 0.00 0.00 0.00 82 1005.3
20260509064948 12 296 3.2 6.4 0.00 0.00 0.00 82 1005.3
20260509064446 12 250 6.4 6.4 0.00 0.00 0.00 82 1005.4
20260509063944 12 288 8.0 9.7 0.00 0.00 0.00 82 1005.3
20260509063444 12 245 11.3 14.5 0.00 0.00 0.00 82 1005.3
20260509062941 12 242 8.0 11.3 0.00 0.00 0.00 82 1005.4
20260509062439 12 262 6.4 9.7 0.00 0.00 0.00 82 1005.4
20260509061937 12 246 8.0 9.7 0.00 0.00 0.00 82 1005.6
20260509061434 13 239 6.4 6.4 0.00 0.00 0.00 81 1005.5
20260509060931 13 275 4.8 4.8 0.00 0.00 0.00 81 1005.6
20260509060428 13 250 8.0 9.7 0.00 0.00 0.00 81 1005.6
20260509055923 13 266 4.8 6.4 0.00 0.00 0.00 81 1005.6
20260509055419 13 251 11.3 14.5 0.00 0.00 0.00 80 1005.6
20260509054915 13 228 8.0 11.3 0.00 0.00 0.00 80 1005.5
20260509054412 13 254 11.3 14.5 0.00 0.00 0.00 80 1005.5
20260509053911 13 221 8.0 11.3 0.00 0.00 0.00 80 1005.4
20260509053408 13 286 6.4 6.4 0.00 0.00 0.00 79 1005.5
20260509052906 13 253 4.8 4.8 0.00 0.00 0.00 79 1005.6
20260509052403 13 264 9.7 12.9 0.00 0.00 0.00 79 1005.6
20260509051901 13 186 6.4 12.9 0.00 0.00 0.00 78 1005.5
20260509051359 13 190 3.2 6.4 0.00 0.00 0.00 78 1005.8
20260509050855 14 269 4.8 4.8 0.00 0.00 0.00 78 1005.8
20260509050352 14 308 3.2 4.8 0.00 0.00 0.00 77 1005.9
20260509045848 14 304 3.2 3.2 0.00 0.00 0.00 77 1005.7
20260509045345 14 252 4.8 6.4 0.00 0.00 0.00 76 1005.9
20260509044843 14 217 6.4 9.7 0.00 0.00 0.00 76 1005.9
20260509044340 14 220 6.4 9.7 0.00 0.00 0.00 76 1006.1
20260509043837 14 266 8.0 11.3 0.00 0.00 0.00 75 1006.1
20260509043332 14 260 11.3 12.9 0.00 0.00 0.00 75 1006.1
20260509042829 15 297 6.4 6.4 0.00 0.00 0.00 74 1006.1
20260509042325 15 241 8.0 11.3 0.00 0.00 0.00 73 1006.4
20260509041822 15 321 8.0 11.3 0.00 0.00 0.00 73 1006.3
20260509041319 15 227 8.0 9.7 0.00 0.00 0.00 72 1006.3
20260509040817 15 282 6.4 9.7 0.00 0.00 0.00 72 1006.3
20260509040314 15 254 11.3 20.9 0.00 0.00 0.00 71 1006.1
20260509035811 15 251 6.4 6.4 0.00 0.00 0.00 70 1006.3
20260509035309 15 312 6.4 9.7 0.00 0.00 0.00 69 1006.3
20260509034805 15 237 6.4 6.4 0.00 0.00 0.00 69 1006.1
20260509034303 15 204 8.0 11.3 0.00 0.00 0.00 68 1006.3
20260509033759 15 290 4.8 6.4 0.00 0.00 0.00 67 1006.3
20260509033256 15 313 4.8 6.4 0.00 0.00 0.00 66 1006.4
20260509032753 15 241 11.3 12.9 0.00 0.00 0.00 65 1006.1
20260509032250 16 213 9.7 11.3 0.00 0.00 0.00 64 1006.1
20260509031748 16 230 16.1 20.9 0.00 0.00 0.00 62 1006.0
20260509031245 16 194 8.0 12.9 0.00 0.00 0.00 60 1005.8
20260509030743 16 258 8.0 12.9 0.00 0.00 0.00 58 1005.8
20260509030240 16 249 14.5 16.1 0.00 0.00 0.00 56 1005.7
20260509025737 16 208 6.4 11.3 0.00 0.00 0.00 53 1005.5
20260509025233 16 266 9.7 11.3 0.00 0.00 0.00 51 1005.4
20260509024728 16 211 6.4 6.4 0.00 0.00 0.00 49 1005.5
20260509024224 16 205 8.0 9.7 0.00 0.00 0.00 48 1005.5
20260509023722 16 231 12.9 14.5 0.00 0.00 0.00 48 1005.3
20260509023219 16 187 6.4 9.7 0.00 0.00 0.00 48 1005.2
20260509022714 17 232 9.7 11.3 0.00 0.00 0.00 48 1005.3
20260509022213 17 222 4.8 6.4 0.00 0.00 0.00 48 1005.2
20260509021709 17 194 11.3 12.9 0.00 0.00 0.00 47 1005.2
20260509021207 17 196 6.4 9.7 0.00 0.00 0.00 47 1005.2
20260509020705 17 225 6.4 9.7 0.00 0.00 0.00 47 1005.1
20260509020201 17 259 6.4 9.7 0.00 0.00 0.00 46 1005.1
20260509015700 17 244 6.4 6.4 0.00 0.00 0.00 46 1005.2
20260509015158 17 218 4.8 4.8 0.00 0.00 0.00 45 1005.0
20260509014654 18 246 3.2 4.8 0.00 0.00 0.00 45 1005.0
20260509014150 18 230 4.8 4.8 0.00 0.00 0.00 45 1004.9
20260509013647 18 202 3.2 4.8 0.00 0.00 0.00 44 1005.1
20260509013143 18 259 11.3 14.5 0.00 0.00 0.00 44 1005.0
20260509012640 18 206 4.8 6.4 0.00 0.00 0.00 43 1004.9
20260509012137 18 246 3.2 4.8 0.00 0.00 0.00 43 1005.1
20260509011635 19 277 4.8 9.7 0.00 0.00 0.00 42 1005.0
20260509011132 19 288 8.0 12.9 0.00 0.00 0.00 42 1005.1
20260509010629 19 204 9.7 14.5 0.00 0.00 0.00 41 1004.8
20260509010126 20 212 6.4 11.3 0.00 0.00 0.00 40 1005.1
20260509005624 20 223 14.5 20.9 0.00 0.00 0.00 39 1005.1
20260509005119 20 242 9.7 12.9 0.00 0.00 0.00 37 1005.1
20260509004615 21 238 6.4 9.7 0.00 0.00 0.00 31 1005.0
20260509004113 21 251 8.0 9.7 0.00 0.00 0.00 29 1005.1
20260509003611 21 329 6.4 9.7 0.00 0.00 0.00 29 1005.1
20260509003108 21 263 6.4 9.7 0.00 0.00 0.00 29 1005.1
20260509002606 21 265 3.2 3.2 0.00 0.00 0.00 28 1005.0
20260509002103 21 290 3.2 3.2 0.00 0.00 0.00 28 1005.1
20260509001600 21 215 9.7 11.3 0.00 0.00 0.00 28 1005.2
20260509001055 22 244 6.4 9.7 0.00 0.00 0.00 28 1005.2
20260509000554 22 232 3.2 4.8 0.00 0.00 0.00 28 1005.3
20260509000050 22 284 6.4 9.7 0.00 0.00 0.00 27 1005.2
20260508235548 22 324 4.8 4.8 0.00 0.00 0.00 27 1005.2
20260508235044 22 326 4.8 6.4 0.00 0.00 0.00 27 1005.4
20260508234541 22 332 6.4 6.4 0.00 0.00 0.00 27 1005.3
20260508234038 22 290 4.8 6.4 0.00 0.00 0.00 27 1005.4
20260508233532 22 249 3.2 4.8 0.00 0.00 0.00 27 1005.4
20260508233029 22 288 6.4 11.3 0.00 0.00 0.00 27 1005.5
20260508232526 22 273 6.4 6.4 0.00 0.00 0.00 27 1005.6
20260508232023 22 303 6.4 6.4 0.00 0.00 0.00 26 1005.6
20260508231520 22 269 8.0 11.3 0.00 0.00 0.00 26 1005.5
20260508231017 22 294 4.8 6.4 0.00 0.00 0.00 27 1005.7
20260508230514 22 292 4.8 6.4 0.00 0.00 0.00 26 1005.8
20260508230010 22 263 3.2 4.8 0.00 0.00 0.00 26 1005.8
20260508225508 23 253 9.7 11.3 0.00 0.00 0.00 26 1005.6
20260508225004 22 287 3.2 3.2 0.00 0.00 0.00 26 1005.9
20260508224502 22 278 6.4 6.4 0.00 0.00 0.00 26 1005.7
20260508223959 23 258 9.7 12.9 0.00 0.00 0.00 26 1005.8
20260508223457 22 219 6.4 11.3 0.00 0.00 0.00 26 1005.9
20260508222954 23 311 4.8 6.4 0.00 0.00 0.00 26 1006.0
20260508222452 22 322 8.0 11.3 0.00 0.00 0.00 25 1005.8
20260508221948 22 246 6.4 9.7 0.00 0.00 0.00 26 1005.9
20260508221444 22 236 16.1 20.9 0.00 0.00 0.00 26 1006.1
20260508220940 23 244 6.4 12.9 0.00 0.00 0.00 25 1006.1
20260508220437 23 225 6.4 11.3 0.00 0.00 0.00 25 1006.0
20260508215933 23 304 9.7 12.9 0.00 0.00 0.00 25 1005.8
20260508215430 23 320 3.2 4.8 0.00 0.00 0.00 25 1005.9
20260508214926 23 298 3.2 3.2 0.00 0.00 0.00 25 1006.0
20260508214425 23 299 4.8 4.8 0.00 0.00 0.00 25 1006.0
20260508213920 23 252 9.7 12.9 0.00 0.00 0.00 24 1006.3
20260508213418 22 249 11.3 12.9 0.00 0.00 0.00 24 1006.3
20260508212913 23 251 11.3 14.5 0.00 0.00 0.00 24 1006.3
20260508212410 22 279 3.2 3.2 0.00 0.00 0.00 24 1006.3
20260508211906 23 240 9.7 24.1 0.00 0.00 0.00 24 1006.4
20260508211401 22 316 3.2 4.8 0.00 0.00 0.00 24 1006.5
20260508210859 22 14 9.7 12.9 0.00 0.00 0.00 25 1006.4
20260508210355 22 277 8.0 9.7 0.00 0.00 0.00 24 1006.6
20260508205852 23 315 4.8 6.4 0.00 0.00 0.00 23 1006.7
20260508205349 22 323 8.0 9.7 0.00 0.00 0.00 23 1006.7
20260508204845 22 306 12.9 14.5 0.00 0.00 0.00 24 1006.6
20260508204342 22 316 6.4 9.7 0.00 0.00 0.00 24 1006.7
20260508203838 22 316 9.7 12.9 0.00 0.00 0.00 26 1006.8
20260508203334 22 237 8.0 11.3 0.00 0.00 0.00 25 1006.8
20260508202830 22 316 6.4 9.7 0.00 0.00 0.00 25 1007.1
20260508202328 22 268 12.9 16.1 0.00 0.00 0.00 25 1007.2
20260508201825 22 355 4.8 4.8 0.00 0.00 0.00 25 1007.2
20260508201322 22 305 11.3 14.5 0.00 0.00 0.00 26 1007.3
20260508200818 22 221 9.7 16.1 0.00 0.00 0.00 26 1007.3
20260508200315 22 273 3.2 3.2 0.00 0.00 0.00 25 1007.3
20260508195811 22 301 6.4 9.7 0.00 0.00 0.00 24 1007.4
20260508195307 22 314 0.0 1.6 0.00 0.00 0.00 24 1007.6
20260508194804 22 244 1.6 3.2 0.00 0.00 0.00 24 1007.6
20260508194301 22 239 3.2 4.8 0.00 0.00 0.00 25 1007.7
20260508193758 22 332 9.7 12.9 0.00 0.00 0.00 25 1007.6
20260508193255 22 286 9.7 11.3 0.00 0.00 0.00 24 1007.9
20260508192751 22 307 9.7 16.1 0.00 0.00 0.00 24 1007.9
20260508192248 22 313 3.2 3.2 0.00 0.00 0.00 25 1007.9
20260508191745 22 217 8.0 11.3 0.00 0.00 0.00 25 1007.8
20260508191242 22 340 3.2 4.8 0.00 0.00 0.00 25 1008.0
20260508190739 21 323 3.2 3.2 0.00 0.00 0.00 26 1008.0
20260508190235 22 295 9.7 11.3 0.00 0.00 0.00 25 1008.0
20260508185732 22 341 0.0 1.6 0.00 0.00 0.00 26 1008.0
20260508185230 21 354 4.8 6.4 0.00 0.00 0.00 26 1008.4
20260508184727 21 297 3.2 4.8 0.00 0.00 0.00 26 1008.5
20260508184224 21 335 4.8 6.4 0.00 0.00 0.00 27 1008.5
20260508183721 21 195 3.2 4.8 0.00 0.00 0.00 27 1008.4
20260508183217 21 28 3.2 4.8 0.00 0.00 0.00 27 1008.5
20260508182713 21 308 1.6 1.6 0.00 0.00 0.00 25 1008.6
20260508182210 21 329 8.0 11.3 0.00 0.00 0.00 27 1008.6
20260508181706 21 310 6.4 9.7 0.00 0.00 0.00 27 1008.6
20260508181203 21 339 8.0 12.9 0.00 0.00 0.00 27 1008.6
20260508180659 21 357 9.7 9.7 0.00 0.00 0.00 26 1008.7
20260508180156 21 299 3.2 3.2 0.00 0.00 0.00 27 1008.6
20260508175648 21 321 3.2 3.2 0.00 0.00 0.00 28 1008.8
20260508175144 21 330 3.2 3.2 0.00 0.00 0.00 26 1009.0
20260508174642 21 211 6.4 6.4 0.00 0.00 0.00 26 1009.2
20260508174138 21 291 4.8 6.4 0.00 0.00 0.00 32 1009.2
20260508173635 20 317 1.6 1.6 0.00 0.00 0.00 33 1009.3
20260508173131 20 317 6.4 12.9 0.00 0.00 0.00 34 1009.4
20260508172629 20 275 4.8 4.8 0.00 0.00 0.00 33 1009.5
20260508172125 20 261 3.2 3.2 0.00 0.00 0.00 34 1009.5
20260508171622 20 19 3.2 3.2 0.00 0.00 0.00 36 1009.7
20260508171118 19 36 6.4 6.4 0.00 0.00 0.00 37 1009.8
20260508170616 20 60 3.2 3.2 0.00 0.00 0.00 36 1010.0
20260508170113 19 62 3.2 4.8 0.00 0.00 0.00 37 1009.9
20260508165610 20 13 3.2 3.2 0.00 0.00 0.00 37 1010.1
20260508165107 20 333 0.0 1.6 0.00 0.00 0.00 37 1010.1
20260508164603 20 331 0.0 0.0 0.00 0.00 0.00 36 1010.1
20260508164100 19 52 1.6 3.2 0.00 0.00 0.00 38 1010.3
20260508163558 18 336 3.2 3.2 0.00 0.00 0.00 41 1010.3
20260508163054 19 6 4.8 6.4 0.00 0.00 0.00 39 1010.2
20260508162551 20 351 0.0 1.6 0.00 0.00 0.00 39 1010.2
20260508162048 18 260 3.2 3.2 0.00 0.00 0.00 42 1010.3
20260508161545 18 325 3.2 3.2 0.00 0.00 0.00 45 1010.4
20260508161042 19 106 6.4 6.4 0.00 0.00 0.00 44 1010.6
20260508160541 18 316 1.6 1.6 0.00 0.00 0.00 47 1010.5
20260508160037 18 12 1.6 3.2 0.00 0.00 0.00 49 1010.5
20260508155535 17 256 1.6 3.2 0.00 0.00 0.00 47 1010.6
20260508155031 17 108 1.6 3.2 0.00 0.00 0.00 50 1010.5
20260508154529 17 73 4.8 4.8 0.00 0.00 0.00 52 1010.6
20260508154025 17 43 3.2 3.2 0.00 0.00 0.00 52 1010.8
20260508153522 17 26 6.4 6.4 0.00 0.00 0.00 52 1010.8
20260508153019 17 300 3.2 4.8 0.00 0.00 0.00 52 1010.9
20260508152516 17 331 0.0 0.0 0.00 0.00 0.00 49 1010.9
20260508152011 17 91 3.2 4.8 0.00 0.00 0.00 52 1011.0
20260508151508 16 7 1.6 3.2 0.00 0.00 0.00 53 1010.9
20260508151004 18 85 4.8 4.8 0.00 0.00 0.00 52 1010.9
20260508150502 17 333 0.0 0.0 0.00 0.00 0.00 52 1011.1
20260508145957 17 29 3.2 4.8 0.00 0.00 0.00 52 1010.9
20260508145454 16 303 3.2 4.8 0.00 0.00 0.00 53 1011.1
20260508144950 16 139 4.8 6.4 0.00 0.00 0.00 53 1011.1
20260508144448 17 47 1.6 3.2 0.00 0.00 0.00 51 1011.2
20260508143945 17 284 1.6 3.2 0.00 0.00 0.00 50 1011.2
20260508143443 16 26 1.6 3.2 0.00 0.00 0.00 53 1011.1
20260508142939 16 309 1.6 1.6 0.00 0.00 0.00 54 1011.3
20260508142437 15 172 4.8 6.4 0.00 0.00 0.00 55 1011.5
20260508141933 15 253 3.2 3.2 0.00 0.00 0.00 55 1011.5
20260508141429 15 319 0.0 1.6 0.00 0.00 0.00 55 1011.5
20260508140927 15 23 6.4 6.4 0.00 0.00 0.00 54 1011.5
20260508140424 15 325 0.0 1.6 0.00 0.00 0.00 53 1011.6
20260508135920 14 17 3.2 3.2 0.00 0.00 0.00 53 1011.3
20260508135417 13 348 1.6 1.6 0.00 0.00 0.00 54 1011.4
20260508134913 13 30 3.2 3.2 0.00 0.00 0.00 54 1011.7
20260508134409 13 42 3.2 3.2 0.00 0.00 0.00 52 1011.6
20260508133906 12 346 0.0 0.0 0.00 0.00 0.00 53 1011.5
20260508133404 11 62 1.6 1.6 0.00 0.00 0.00 54 1011.3
20260508132901 11 13 1.6 1.6 0.00 0.00 0.00 56 1011.7
20260508132359 11 48 3.2 4.8 0.00 0.00 0.00 55 1011.6
20260508131855 11 49 1.6 3.2 0.00 0.00 0.00 53 1011.5
20260508131350 11 344 0.0 0.0 0.00 0.00 0.00 55 1011.5
20260508130848 11 353 0.0 1.6 0.00 0.00 0.00 54 1011.6
20260508130344 10 341 3.2 3.2 0.00 0.00 0.00 57 1011.5
20260508125840 10 337 0.0 0.0 0.00 0.00 0.00 55 1011.5
20260508125336 9 31 3.2 4.8 0.00 0.00 0.00 59 1011.5
20260508124834 8 31 1.6 3.2 0.00 0.00 0.00 60 1011.3
20260508124331 8 350 0.0 1.6 0.00 0.00 0.00 63 1011.5
20260508123829 9 21 1.6 1.6 0.00 0.00 0.00 61 1011.5
20260508123327 10 347 0.0 0.0 0.00 0.00 0.00 56 1011.7
20260508122823 8 347 0.0 0.0 0.00 0.00 0.00 57 1011.6
20260508122320 7 347 0.0 0.0 0.00 0.00 0.00 67 1011.7
20260508121817 6 338 0.0 1.6 0.00 0.00 0.00 69 1011.6
20260508121316 5 332 0.0 0.0 0.00 0.00 0.00 72 1011.6
20260508120813 5 343 0.0 0.0 0.00 0.00 0.00 74 1011.4
20260508120311 5 318 1.6 1.6 0.00 0.00 0.00 77 1011.4
20260508115808 5 6 1.6 1.6 0.00 0.00 0.00 80 1011.5
20260508115306 5 22 1.6 3.2 0.00 0.00 0.00 79 1011.4
20260508114802 5 338 0.0 1.6 0.00 0.00 0.00 78 1011.6
20260508114259 5 338 0.0 0.0 0.00 0.00 0.00 77 1011.5
20260508113755 5 339 0.0 0.0 0.00 0.00 0.00 78 1011.4
20260508113254 5 339 0.0 0.0 0.00 0.00 0.00 79 1011.3
20260508112749 4 338 0.0 0.0 0.00 0.00 0.00 81 1011.4
20260508112247 3 326 0.0 0.0 0.00 0.00 0.00 83 1011.3
20260508111743 3 328 0.0 0.0 0.00 0.00 0.00 84 1011.3
20260508111241 3 329 0.0 0.0 0.00 0.00 0.00 85 1011.3
20260508110738 3 329 0.0 0.0 0.00 0.00 0.00 84 1011.1
20260508110236 3 352 1.6 3.2 0.00 0.00 0.00 84 1011.1
20260508105735 3 325 0.0 0.0 0.00 0.00 0.00 85 1011.1
20260508105232 3 327 1.6 1.6 0.00 0.00 0.00 85 1011.1
20260508104729 3 318 0.0 1.6 0.00 0.00 0.00 85 1011.0
20260508104226 3 332 1.6 3.2 0.00 0.00 0.00 84 1010.9
20260508103724 3 331 0.0 0.0 0.00 0.00 0.00 82 1010.9
20260508103220 3 331 0.0 0.0 0.00 0.00 0.00 82 1011.0
20260508102718 3 336 0.0 0.0 0.00 0.00 0.00 81 1011.1
20260508102216 3 345 1.6 1.6 0.00 0.00 0.00 81 1010.9
20260508101712 3 324 0.0 0.0 0.00 0.00 0.00 81 1011.1
20260508101210 3 328 0.0 0.0 0.00 0.00 0.00 82 1011.1
20260508100707 3 330 0.0 0.0 0.00 0.00 0.00 82 1011.1
20260508100205 3 338 0.0 1.6 0.00 0.00 0.00 82 1011.2
20260508095656 3 336 0.0 0.0 0.00 0.00 0.00 82 1011.0
20260508095154 3 336 0.0 0.0 0.00 0.00 0.00 82 1011.1
20260508094650 3 337 0.0 0.0 0.00 0.00 0.00 81 1011.2
20260508094147 3 345 1.6 1.6 0.00 0.00 0.00 81 1011.2